This is the latest recevied weather packets stored in our database for station/object N5ATR. If no packets are shown the sender has not sent any weather packets the latest 10 day(s).
| Time | Temp. | Humidity | Pressure | Rain* | Wind** | Luminosity | Snow |
|---|---|---|---|---|---|---|---|
| 1777849841 | 18.89° C | 25% | 1015.9 hPa | 0 mm | - | 350 W/m² | - |
| 1777849538 | 18.33° C | 26% | 1015.7 hPa | 0 mm | - | 367 W/m² | - |
| 1777849236 | 18.89° C | 26% | 1015.7 hPa | 0 mm | - | 380 W/m² | - |
| 1777848933 | 19.44° C | 25% | 1016 hPa | 0 mm | - | 394 W/m² | - |
| 1777848633 | 18.89° C | 27% | 1016.1 hPa | 0 mm | - | 408 W/m² | - |
| 1777848331 | 18.89° C | 26% | 1015.9 hPa | 0 mm | - | 421 W/m² | - |
| 1777848028 | 18.89° C | 26% | 1016.2 hPa | 0 mm | - | 433 W/m² | - |
| 1777847726 | 18.89° C | 27% | 1016 hPa | 0 mm | - | 446 W/m² | - |
| 1777847421 | 18.89° C | 26% | 1016.1 hPa | 0 mm | - | 460 W/m² | - |
| 1777847120 | 18.89° C | 26% | 1016.1 hPa | 0 mm | - | 471 W/m² | - |
| 1777846818 | 18.89° C | 26% | 1016.5 hPa | 0 mm | - | 483 W/m² | - |
| 1777846516 | 18.89° C | 25% | 1016.6 hPa | 0 mm | - | 496 W/m² | - |
| 1777846213 | 18.89° C | 25% | 1016.2 hPa | 0 mm | - | 509 W/m² | - |
| 1777845909 | 19.44° C | 24% | 1016.2 hPa | 0 mm | - | 523 W/m² | - |
| 1777845606 | 18.89° C | 24% | 1016.4 hPa | 0 mm | - | 539 W/m² | - |
| 1777845303 | 18.33° C | 24% | 1016.6 hPa | 0 mm | - | 551 W/m² | - |
| 1777845000 | 18.89° C | 25% | 1016.7 hPa | 0 mm | - | 562 W/m² | - |
| 1777844698 | 18.33° C | 24% | 1016.9 hPa | 0 mm | - | 574 W/m² | - |
| 1777844395 | 18.33° C | 26% | 1016.9 hPa | 0 mm | - | 586 W/m² | - |
| 1777844093 | 18.33° C | 27% | 1017 hPa | 0 mm | - | 599 W/m² | - |
| 1777843789 | 18.89° C | 24% | 1017 hPa | 0 mm | - | 610 W/m² | - |
| 1777843487 | 18.33° C | 26% | 1017.2 hPa | 0 mm | - | 624 W/m² | - |
| 1777843184 | 18.33° C | 25% | 1017.1 hPa | 0 mm | - | 635 W/m² | - |
| 1777842881 | 17.78° C | 27% | 1017.5 hPa | 0 mm | - | 647 W/m² | - |
| 1777842576 | 18.33° C | 29% | 1017.6 hPa | 0 mm | - | 658 W/m² | - |
* Rain latest hour (hover to see other rain measurements)
** Current wind speed in m/s (hover to see current wind gust speed)